Location: Little Bennett Regional Park
(39.2840°N, 77.2890°W)
Time: 19:40:32
(UTC-04:00)

Daily predictions for brighter satellites

Satellite Brightness Start Highest point End
(mag) Time Altitude Azimuth Time Altitude Azimuth Time Altitude Azimuth
Cosmos 1697 Rocket 2.9 20:15:16 10° SSW 20:20:56 79° WNW 20:26:36 10° NNE
SJ-6B 3.7 20:19:39 10° S 20:23:28 54° W 20:27:24 10° NNW
ATLAS CENTAUR R/B 1.8 20:23:16 10° NW 20:25:38 69° SW 20:31:12 10° SE
Cosmos 1400 Rocket 2.7 20:23:44 10° N 20:27:37 69° E 20:31:32 10° SSE
OTV 4 1.8 20:26:52 10° W 20:29:23 28° SSW 20:31:55 10° SE
Cosmos 2297 Rocket 3.5 20:24:37 10° NW 20:29:56 43° WSW 20:35:14 10° S
Nadezhda 4 Rocket 4.0 20:24:06 10° N 20:30:22 73° E 20:36:39 10° SSE
ALOS 3.1 20:27:11 10° S 20:31:45 54° W 20:36:20 10° NNW
DELTA 2 R/B (1) 3.8 20:26:57 10° W 20:32:33 67° SSW 20:37:59 11° ESE
FENGYUN 3A 4.3 20:28:20 10° S 20:33:36 60° W 20:38:54 10° NNW
Cosmos 1892 2.6 20:30:29 10° N 20:34:16 75° E 20:38:04 10° SSE
Cosmos 1634 Rocket 4.3 20:30:13 10° SSE 20:36:09 46° E 20:42:08 10° NNE
Intercosmos 25 Rocket 4.5 20:35:39 10° SE 20:37:55 18° E 20:40:25 10° NE
Cosmos 2263 Rocket 3.8 20:35:09 10° N 20:38:53 18° NE 20:42:36 10° E
Cosmos 1092 Rocket 4.1 20:32:47 10° N 20:39:03 61° E 20:45:19 10° SSE
Meteor 2-3 Rocket 3.9 20:33:51 10° NNW 20:39:34 80° W 20:45:19 10° S
Cosmos 1315 Rocket 3.1 20:35:59 10° N 20:39:57 49° ENE 20:43:51 10° SSE
H-2A R/B 3.3 20:36:45 10° S 20:40:37 62° W 20:44:28 10° NNW
Cosmos 2322 Rocket 2.9 20:36:50 10° SSE 20:41:41 31° ESE 20:46:32 10° NE
USA 186 1.4 20:40:03 10° SSE 20:42:37 56° ENE 20:45:24 10° N
Cosmos 1707 Rocket 3.5 20:42:09 10° S 20:46:34 69° E 20:50:58 10° NNE
YAOGAN 6 4.4 20:45:47 13° E 20:47:22 16° ENE 20:49:43 10° NNE
Abrixas rocket 2.7 20:44:19 10° WSW 20:47:35 62° NNW 20:50:50 10° NE
Spot 2 Rocket 3.7 20:42:45 10° S 20:47:51 77° WSW 20:52:57 10° NNW
ORS 1 (USA 231) 4.4 20:48:10 10° WSW 20:51:15 87° S 20:53:47 14° E
Cosmos 2360 Rocket 3.7 20:52:40 14° ESE 20:53:09 14° E 20:55:56 10° ENE
Cosmos 1980 Rocket 2.5 20:47:46 10° SSW 20:53:25 72° WNW 20:59:08 10° NNE
Cosmos 1733 Rocket 4.2 20:51:22 10° NNE 20:55:05 25° ENE 20:57:20 17° ESE
CZ-2D R/B 3.9 20:55:10 10° S 20:58:59 56° W 21:02:50 10° NNW
Helios 1B rocket 2.3 20:55:11 10° NNE 20:59:16 66° ESE 21:03:20 10° S
Resurs 1-3 4.3 20:55:51 10° S 21:00:09 55° W 21:04:28 10° NNW
Lacrosse 4 Rocket 2.6 20:57:11 10° N 21:01:00 30° NE 21:03:17 19° ESE
Meteor 1-29 3.1 20:57:48 10° NNE 21:01:13 53° E 21:04:36 10° S
Cosmos 1869 Rocket 4.0 21:00:55 10° NNW 21:05:22 65° W 21:09:47 10° S
Cosmos 1825 2.6 21:02:50 10° N 21:06:28 41° E 21:08:24 23° SE
Cosmos 1862 4.3 21:03:21 10° NNE 21:06:55 30° ENE 21:08:23 23° ESE
Envisat 3.0 21:02:47 11° SSE 21:07:42 70° ENE 21:12:45 10° N
SL-16 R/B 2.3 21:02:59 10° S 21:08:28 52° ESE 21:13:57 10° NNE
Cosmos 1302 Rocket 4.4 21:03:22 10° SSW 21:08:32 67° WNW 21:13:43 10° NNE
Cosmos 1627 Rocket 4.4 21:06:09 10° N 21:12:23 72° E 21:18:24 10° SSE
Cosmos 1939 Rocket 2.9 21:09:41 19° SSE 21:12:31 62° ENE 21:16:31 10° N
Cosmos 2242 Rocket 3.6 21:08:25 10° S 21:12:53 64° E 21:17:21 10° NNE
Milstar 3 3.6 21:06:35 10° WSW 21:13:40 35° S 21:17:22 20° SE
SJ-11-01 4.2 21:10:59 15° SSE 21:14:45 71° ENE 21:19:25 10° N
SPOT 5 4.3 21:15:36 19° E 21:16:57 21° ENE 21:20:29 10° NNE
CZ-4B DEB 2.5 21:15:52 25° SSE 21:17:30 89° W 21:20:34 10° NNW
Cosmos 2195 Rocket 4.4 21:11:43 10° N 21:17:50 82° E 21:23:58 10° S
Cosmos 2279 Rocket 4.0 21:12:30 10° S 21:18:36 59° E 21:24:42 10° NNE
ATLAS 5 CENTAUR R/B 3.7 21:16:02 10° NNW 21:21:00 27° NE 21:24:21 17° E
USA 234 3.3 21:20:01 22° SE 21:24:37 87° SW 21:31:13 10° NW
SEDSat Delta rocket 4.5 21:21:55 10° SW 21:26:46 31° SSE 21:28:23 27° SE
OAO 3 Rocket 3.5 21:22:41 10° WSW 21:27:25 50° S 21:29:18 32° ESE
Resurs 01 Rocket 3.9 21:25:23 10° SSW 21:28:55 23° W 21:32:29 10° NW
Helios 1A 3.9 21:26:47 10° S 21:30:52 48° W 21:35:01 10° NNW
Atlas Centaur 2 3.7 21:25:24 10° SW 21:31:45 31° SSE 21:34:14 26° SE
ARGOS 4.1 21:30:20 26° E 21:31:54 30° ENE 21:36:32 10° N
Cosmos 1428 Rocket 4.4 21:31:31 10° N 21:37:37 70° E 21:41:11 26° SSE
Cosmos 2180 Rocket 4.5 21:32:09 10° S 21:38:28 70° E 21:44:48 10° NNE
FALCON 9 R/B 2.5 21:37:21 10° WSW 21:38:04 16° SW 21:38:04 16° SW
ERS-1 Rocket 2.9 21:42:11 35° SSE 21:44:21 75° ENE 21:49:23 10° N
Cosmos 1408 3.5 21:44:55 10° NNW 21:48:29 47° W 21:50:06 27° SSW
ERBS 2.6 21:49:18 10° NW 21:52:42 60° SW 21:52:42 60° SW
Sich 1 Rocket 3.9 21:49:31 10° N 21:53:51 48° E 21:53:57 47° E
SeaSat 1 2.6 22:00:11 49° E 22:01:01 56° ENE 22:05:52 10° NNW
Cosmos 1992 Rocket 4.2 21:57:12 10° SSW 22:02:24 69° WNW 22:07:39 10° NNE
USA 229 DEB 3.8 22:04:46 43° SE 22:05:53 46° ESE 22:12:25 10° NE
USA 229 3.9 22:05:02 43° SE 22:06:00 46° ESE 22:12:30 10° NE
H-2A R/B 3.9 22:07:13 19° NE 22:07:13 19° NE 22:09:25 10° NNE
MetOp-A 4.0 22:08:20 51° SSE 22:09:46 90° N 22:15:09 10° NNW
USA 245 4.2 22:08:35 51° SE 22:09:59 70° ENE 22:15:20 10° N
Cosmos 1908 Rocket 3.4 22:06:55 10° N 22:11:04 74° NE 22:11:04 74° NE
COSMOS 2428 4.0 22:23:05 25° ENE 22:23:05 25° ENE 22:25:48 10° NE
YAOGAN 6 4.2 22:20:14 28° WSW 22:20:41 29° W 22:23:54 10° NW
Cosmos 1867 3.8 22:17:00 10° NNW 22:22:22 53° NE 22:22:40 53° ENE
Cosmos 2263 Rocket 2.3 22:17:48 10° NNW 22:23:20 68° WSW 22:24:23 55° SSW
H-2A R/B 2.3 22:24:03 52° ENE 22:24:03 52° ENE 22:28:35 10° N
Cosmos 1782 Rocket 4.2 22:20:50 10° N 22:24:09 47° NNE 22:24:09 47° NNE
Okean 2 Rocket 4.2 22:21:06 10° N 22:24:13 35° NE 22:24:13 35° NE
Cosmos 2322 Rocket 3.7 22:20:30 10° SW 22:25:35 35° WNW 22:30:44 10° N
Terra 3.2 22:26:53 28° NE 22:26:53 28° NE 22:30:02 10° N
Meteor 2-10 Rocket 4.2 22:30:48 28° SSW 22:33:48 59° WNW 22:39:33 10° N
Cosmos 2360 Rocket 2.3 22:34:16 39° SW 22:36:25 74° WNW 22:42:06 10° NNE
SL-08 RB Rocket 4.0 22:37:52 67° NW 22:37:52 67° NW 22:41:55 10° NNW
Lacrosse 4 Rocket 3.2 22:36:03 10° NW 22:39:35 25° WSW 22:39:39 25° WSW
Meteor 1-20 Rocket 4.3 22:35:05 10° N 22:40:13 64° NE 22:40:13 64° NE
Cosmos 2322 3.7 22:40:41 58° SW 22:41:49 78° WNW 22:47:33 10° NNE
Cosmos 968 Rocket 3.6 22:41:29 10° NNW 22:46:23 68° W 22:46:23 68° W
ASTEX 1 4.5 22:50:52 36° NNE 22:50:52 36° NNE 22:54:09 10° N
Cosmos 2266 Rocket 4.3 22:46:22 10° NNW 22:52:31 60° W 22:53:45 51° SW
SL-16 R/B 4.4 22:48:27 10° WSW 22:52:52 23° NW 22:57:19 10° N
Okean 1-7 4.2 22:55:18 40° NNW 22:55:18 40° NNW 22:58:18 10° N
SPOT 5 3.8 22:54:50 41° W 22:54:50 41° W 22:59:17 10° NNW
CZ-4C R/B 4.2 22:51:45 10° NNW 22:57:33 27° NE 22:59:44 23° ENE
Cosmos 2333 Rocket 4.1 23:04:54 18° NE 23:04:54 18° NE 23:06:31 10° NE
ATLAS 5 CENTAUR R/B 2.6 23:00:06 10° NW 23:05:54 65° WSW 23:05:54 65° WSW
Cosmos 2237 Rocket 4.4 23:14:49 14° NE 23:14:49 14° NE 23:15:48 10° NE
SPOT 1/Viking Rocket 4.4 23:11:28 43° W 23:11:28 43° W 23:16:01 10° NNW
ARGOS 4.4 23:11:51 33° W 23:12:02 33° W 23:16:51 10° NNW
Cosmos 2278 Rocket 3.6 23:10:20 10° N 23:14:18 28° NE 23:14:18 28° NE
Atlas Centaur 2 4.1 23:13:18 10° WSW 23:16:54 28° SW 23:16:54 28° SW
Cosmos 1553 Rocket 4.4 23:23:20 56° NNE 23:23:20 56° NNE 23:28:15 10° N
Cosmos 1844 Rocket 3.4 23:21:39 10° NNW 23:25:44 50° NNW 23:25:44 50° NNW
H-2A R/B 4.5 23:44:20 19° NW 23:44:20 19° NW 23:45:54 10° NNW
Cosmos 2219 Rocket 3.5 23:45:20 34° NNE 23:45:20 34° NNE 23:48:28 10° NNE
